Weather History for Ft Lauderdale, FL

Change the Weather History Date:

Sunday, February 3, 2013

  Actual Average Record
Temperature  
Mean Temperature 67 °F 70 °F  
Max Temperature 76 °F 77 °F 85 °F (1985)
Min Temperature 57 °F 63 °F 30 °F (1917)
Degree Days  
Heating Degree Days 0 1  
Month to date heating degree days 1 3  
Since 1 July heating degree days 25 83  
Cooling Degree Days 2 6  
Month to date cooling degree days 3 18  
Year to date cooling degree days 258 188  
Growing Degree Days 16 (Base 50)    
Moisture  
Dew Point 48 °F    
Average Humidity 60    
Maximum Humidity 86    
Minimum Humidity 33    
Precipitation  
Precipitation 0.00 in 0.11 in 3.00 in (1998)
Month to date precipitation 0.00 0.33  
Year to date precipitation 0.98 3.96  
Snow  
Snow 0.00 in - - ()
Month to date snowfall 0.0  
Since 1 July snowfall 0.0  
Snow Depth 0.00 in    
Sea Level Pressure  
Sea Level Pressure 30.11 in    
Wind  
Wind Speed 6 mph (NNW)    
Max Wind Speed 14 mph    
Max Gust Speed 21 mph    
Visibility 10 miles    
Events      
T = Trace of Precipitation, MM = Missing Value Source: NWS Daily Summary

Daily Weather History Graph

Daily Weather History Graph

Search for Another Location

Airport:

Trip Planner

Search our weather history database for the weather conditions in past years. The results will help you decide how hot, cold, wet, or windy it might be!

Date:

Astronomy

Feb. 03, 2013 Rise Set
Actual Time 7:03 AM EST 6:05 PM EST
Civil Twilight 6:39 AM EST 6:29 PM EST
Nautical Twilight 6:12 AM EST 6:57 PM EST
Astronomical Twilight 5:44 AM EST 7:24 PM EST
Moon 12:28 AM EST (2/3) 11:45 AM EST (2/3)
Length of Visible Light 11h 49m
Length of Day
11h 01m
Waning Gibbous, 49% of the Moon is Illuminated
Feb 3
Waning Gibbous
Feb 10
New
Feb 17
First Quarter
Feb 25
Full
Mar 4
Last Quarter

Hourly Weather History & Observations

Time (EST) Temp. Dew Point Humidity Pressure Visibility Wind Dir Wind Speed Gust Speed Precip Events Conditions
12:53 AM 63.0 °F 54.0 °F 72% 30.10 in 10.0 mi ESE 3.5 mph - N/A   Partly Cloudy
1:53 AM 63.0 °F 54.0 °F 72% 30.09 in 10.0 mi Calm Calm - N/A   Clear
2:53 AM 61.0 °F 53.1 °F 75% 30.08 in 10.0 mi Calm Calm - N/A   Partly Cloudy
3:53 AM 60.1 °F 54.0 °F 80% 30.08 in 10.0 mi Calm Calm - N/A   Clear
4:53 AM 60.1 °F 54.0 °F 80% 30.08 in 10.0 mi NNW 5.8 mph - N/A   Partly Cloudy
5:53 AM 57.9 °F 53.1 °F 84% 30.10 in 10.0 mi NW 8.1 mph - N/A   Partly Cloudy
6:53 AM 57.0 °F 54.0 °F 89% 30.12 in 10.0 mi NW 8.1 mph - N/A   Partly Cloudy
7:53 AM 59.0 °F 52.0 °F 78% 30.14 in 10.0 mi NNW 6.9 mph - N/A   Scattered Clouds
8:53 AM 64.9 °F 50.0 °F 58% 30.16 in 10.0 mi NNW 11.5 mph - N/A   Partly Cloudy
9:53 AM 69.1 °F 48.9 °F 49% 30.17 in 10.0 mi North 11.5 mph - N/A   Partly Cloudy
10:53 AM 71.1 °F 50.0 °F 47% 30.16 in 10.0 mi NNW 9.2 mph - N/A   Partly Cloudy
11:53 AM 73.9 °F 50.0 °F 43% 30.14 in 10.0 mi NNW 8.1 mph 18.4 mph N/A   Scattered Clouds
12:53 PM 73.9 °F 46.0 °F 37% 30.11 in 10.0 mi WNW 9.2 mph - N/A   Partly Cloudy
1:53 PM 75.9 °F 44.1 °F 32% 30.08 in 10.0 mi NNW 11.5 mph - N/A   Partly Cloudy
2:53 PM 73.9 °F 44.1 °F 34% 30.07 in 10.0 mi Variable 5.8 mph - N/A   Partly Cloudy
3:53 PM 72.0 °F 48.0 °F 43% 30.07 in 10.0 mi ENE 9.2 mph - N/A   Partly Cloudy
4:53 PM 71.1 °F 46.0 °F 41% 30.08 in 10.0 mi NE 11.5 mph - N/A   Partly Cloudy
5:53 PM 69.1 °F 45.0 °F 42% 30.09 in 10.0 mi NNE 8.1 mph - N/A   Partly Cloudy
6:53 PM 66.0 °F 44.1 °F 45% 30.08 in 10.0 mi North 6.9 mph - N/A   Partly Cloudy
7:53 PM 64.0 °F 44.1 °F 48% 30.10 in 10.0 mi North 3.5 mph - N/A   Clear
8:53 PM 64.0 °F 41.0 °F 43% 30.11 in 10.0 mi WNW 4.6 mph - N/A   Clear
9:53 PM 62.1 °F 41.0 °F 46% 30.12 in 10.0 mi NW 4.6 mph - N/A   Clear
10:53 PM 62.1 °F 41.0 °F 46% 30.12 in 10.0 mi Calm Calm - N/A   Clear
11:53 PM 57.0 °F 42.1 °F 57% 30.11 in 10.0 mi Calm Calm - N/A   Clear